• Join FlightAware (Why Join?)
  • Login
  • US Flag 
05:08PM EST


 

Airport Tracker/Info


-or-


 

Live Flight TrackerFlight Track Log ✈ SWA3587 ✈ 07-Mar-2013 ✈ KLGA - KMKE

Flight Track Log - Related Links

Times and Time Zones

All times are in EST time to prevent confusion due to time zone crossing. See the SWA3587 flight status page for this flight to view local times or setup timezone preferences in your user account.

Time Position Orientation Groundspeed Altitude Reporting Facility
EST Latitude Longitude Course Direction KTS MPH feet Rate Location/Type
10:00AM 40.8100 -73.8883 351° North 149 171 2,300  Level New York Center
10:01AM 40.8667 -73.9000 351° North 192 221 6,100 2,640 Climbing New York TRACON
10:03AM 40.9531 -73.9994 319° Northwest 259 298 10,500 3,000 Climbing New York Center
10:05AM 41.0572 -74.2133 303° West 340 391 17,500 3,300 Climbing New York Center
10:06AM 41.0806 -74.3439 283° West 356 410 20,500 2,880 Climbing New York Center
10:07AM 41.1011 -74.4856 281° West 371 427 23,400 2,820 Climbing New York Center
10:08AM 41.1256 -74.6300 283° West 395 455 26,200 2,640 Climbing New York Center
10:09AM 41.1686 -74.7758 291° West 412 474 28,700 2,400 Climbing New York Center
10:10AM 41.2328 -74.9119 302° West 423 487 31,100 3,060 Climbing New York Center
10:11AM 41.2883 -75.0453 299° West 427 491 34,900 2,760 Climbing New York Center
10:12AM 41.3422 -75.1703 300° West 409 471 36,800 1,680 Climbing New York Center
10:13AM 41.3958 -75.2925 300° West 397 457 38,400 1,200 Climbing New York Center
10:14AM 41.4328 -75.4142 292° West 390 449 39,200 780 Climbing New York Center
10:15AM 41.4750 -75.5556 292° West 397 457 40,000 360 Climbing New York Center
10:16AM 41.5128 -75.6994 289° West 405 466 40,000  Level New York Center
10:17AM 41.5550 -75.8356 293° West 405 466 40,000  Level New York Center
10:18AM 41.5983 -75.9914 290° West 400 460 40,000  Level New York Center
10:19AM 41.6400 -76.1308 292° West 400 460 40,000  Level New York Center
10:20AM 41.6739 -76.2528 290° West 395 455 40,000  Level New York Center
10:21AM 41.7153 -76.3925 292° West 395 455 40,000  Level New York Center
10:22AM 41.7561 -76.5433 290° West 395 455 40,000  Level New York Center
10:23AM 41.7917 -76.6661 291° West 395 455 40,000  Level New York Center
10:25AM 41.8922 -77.0181 291° West 391 450 40,000  Level Cleveland Center
10:26AM 41.9297 -77.1556 290° West 391 450 40,000  Level Cleveland Center
10:27AM 41.9692 -77.2958 291° West 396 456 40,000  Level Cleveland Center
10:28AM 42.0086 -77.4364 291° West 401 461 40,000  Level Cleveland Center
10:29AM 42.0458 -77.5772 290° West 401 461 40,000  Level Cleveland Center
10:30AM 42.0847 -77.7181 290° West 401 461 40,000  Level Cleveland Center
10:31AM 42.1217 -77.8592 289° West 401 461 40,000  Level Cleveland Center
10:32AM 42.1558 -77.9839 290° West 401 461 40,000  Level Cleveland Center
10:33AM 42.1922 -78.1225 290° West 401 461 40,000  Level Cleveland Center
10:34AM 42.2306 -78.2611 291° West 401 461 40,000  Level Cleveland Center
10:35AM 42.2664 -78.3975 290° West 396 456 40,000  Level Cleveland Center
10:36AM 42.3025 -78.5339 290° West 396 456 40,000  Level Cleveland Center
10:37AM 42.3381 -78.6731 289° West 396 456 40,000  Level Cleveland Center
10:38AM 42.3736 -78.8125 289° West 396 456 40,000  Level Cleveland Center
10:39AM 42.4050 -78.9664 285° West 396 456 40,000  Level Cleveland Center
10:40AM 42.4258 -79.1119 281° West 395 455 40,000  Level Cleveland Center
10:41AM 42.4419 -79.2411 280° West 395 455 40,000  Level Cleveland Center
10:42AM 42.4644 -79.3842 282° West 395 455 40,000  Level Cleveland Center
10:43AM 42.4844 -79.5247 281° West 389 448 40,000  Level Cleveland Center
10:44AM 42.5025 -79.6681 280° West 389 448 40,000  Level Cleveland Center
10:45AM 42.5203 -79.8086 280° West 389 448 40,000  Level Cleveland Center
10:46AM 42.5397 -79.9492 281° West 389 448 40,000  Level Cleveland Center
10:47AM 42.5592 -80.1039 280° West 389 448 40,000  Level Cleveland Center
10:48AM 42.5764 -80.2478 279° West 389 448 40,000  Level Cleveland Center
10:49AM 42.5914 -80.3858 278° West 389 448 40,000  Level Cleveland Center
10:50AM 42.6103 -80.5267 280° West 389 448 40,000  Level Cleveland Center
10:51AM 42.6289 -80.6650 280° West 382 440 40,000  Level Cleveland Center
10:52AM 42.6456 -80.8061 279° West 382 440 40,000  Level Cleveland Center
10:53AM 42.6617 -80.9444 279° West 377 434 40,000  Level Cleveland Center
10:54AM 42.6800 -81.0886 280° West 377 434 40,000  Level Cleveland Center
10:55AM 42.6919 -81.2075 278° West 377 434 40,000 -180 Level Cleveland Center
10:56AM 42.7097 -81.3575 279° West 390 449 39,700 -1,200 Descending Cleveland Center
10:57AM 42.7275 -81.4961 280° West 385 443 37,600 -1,800 Descending Cleveland Center
10:58AM 42.7431 -81.6347 279° West 385 443 36,100 -840 Descending Cleveland Center
10:59AM 42.7583 -81.7681 279° West 370 426 36,000 -60 Descending Cleveland Center
11:00AM 42.7756 -81.9153 279° West 370 426 36,000  Level Cleveland Center
11:01AM 42.7906 -82.0544 278° West 370 426 36,000  Level Cleveland Center
11:02AM 42.8053 -82.1961 278° West 370 426 36,000  Level Cleveland Center
11:03AM 42.8219 -82.3353 279° West 370 426 36,000  Level Cleveland Center
11:04AM 42.8364 -82.4772 278° West 370 426 36,000  Level Cleveland Center
11:05AM 42.8528 -82.6222 279° West 375 432 36,000  Level Cleveland Center
11:06AM 42.8667 -82.7644 278° West 380 437 36,000  Level Cleveland Center
11:07AM 42.8808 -82.9067 278° West 385 443 36,000  Level Cleveland Center
11:08AM 42.8964 -83.0489 279° West 385 443 36,000  Level Cleveland Center
11:09AM 42.9083 -83.1769 277° West 385 443 36,000  Level Cleveland Center
11:10AM 42.9236 -83.3222 278° West 390 449 36,000  Level Cleveland Center
11:11AM 42.9369 -83.4617 277° West 390 449 36,000  Level Cleveland Center
11:12AM 42.9519 -83.6042 278° West 390 449 36,000  Level Cleveland Center
11:13AM 42.9650 -83.7497 277° West 390 449 36,000  Level Cleveland Center
11:14AM 42.9775 -83.8894 277° West 390 449 36,000  Level Cleveland Center
11:15AM 42.9944 -84.0294 279° West 385 443 36,000  Level Cleveland Center
11:16AM 43.0047 -84.1719 276° West 385 443 36,000  Level Cleveland Center
11:17AM 43.0192 -84.3092 278° West 385 443 36,000  Level Cleveland Center
11:18AM 43.0375 -84.4858 278° West 371 427 36,000  Level Chicago Center
11:20AM 43.0506 -84.6275 277° West 375 432 36,000  Level Chicago Center
11:21AM 43.0633 -84.7683 277° West 373 429 36,000  Level Chicago Center
11:22AM 43.0758 -84.9117 277° West 379 436 36,000  Level Chicago Center
11:23AM 43.0886 -85.0528 277° West 376 433 36,000  Level Chicago Center
11:24AM 43.1033 -85.2275 277° West 386 444 36,000  Level Chicago Center
11:25AM 43.1147 -85.3719 276° West 384 442 36,000  Level Chicago Center
11:26AM 43.1278 -85.5192 277° West 391 450 36,000  Level Chicago Center
11:27AM 43.1397 -85.6669 276° West 393 452 36,000 -660 Level Chicago Center
11:28AM 43.1514 -85.8133 276° West 393 452 34,700 -1,800 Descending Chicago Center
11:29AM 43.1628 -85.9506 277° West 376 433 32,300 -2,640 Descending Chicago Center
11:30AM 43.1689 -86.1081 273° West 357 411 29,400 -2,400 Descending Chicago Center
11:31AM 43.1669 -86.2367 269° West 343 395 27,500 -1,680 Descending Chicago Center
11:32AM 43.1650 -86.3656 269° West 339 390 26,000 -1,860 Descending Chicago Center
11:33AM 43.1625 -86.4900 268° West 330 380 23,800 -2,100 Descending Chicago Center
11:34AM 43.1614 -86.6103 269° West 318 366 21,700 -2,340 Descending Chicago Center
11:35AM 43.1581 -86.7531 268° West 316 364 19,100 -2,280 Descending Chicago Center
11:36AM 43.1558 -86.8706 269° West 312 359 17,100 -2,160 Descending Chicago Center
11:37AM 43.1436 -86.9886 262° West 314 361 14,700 -2,040 Descending Chicago Center
11:38AM 43.1294 -87.1044 261° West 311 358 13,000 -2,100 Descending Chicago Center
11:39AM 43.1167 -87.2164 261° West 301 346 10,500 -1,740 Descending Chicago Center
11:40AM 43.1064 -87.3225 262° West 280 322 9,500 -1,320 Descending Chicago Center
11:41AM 43.0953 -87.4281 262° West 258 297 7,800 -1,260 Descending Chicago Center
11:42AM 43.0850 -87.5239 262° West 256 295 7,000 -420 Descending Chicago Center
11:43AM 43.0769 -87.6192 263° West 252 290 7,000  Level Chicago Center
11:44AM 43.0319 -87.7139 237° Southwest 256 295 7,000  Level Chicago Center
11:45AM 42.9881 -87.7694 223° Southwest 225 259 7,000 -60 Level Chicago Center
11:46AM 42.9250 -87.7719 182° South 227 261 6,900 -600 Descending Chicago Center
11:47AM 42.8656 -87.7758 183° South 215 247 5,800 -1,200 Descending Chicago Center
11:48AM 42.8122 -87.7981 197° South 213 245 4,500 -1,260 Descending Chicago Center
11:49AM 42.8103 -87.8678 268° West 191 220 3,300 -1,020 Descending Chicago Center
11:50AM 42.8453 -87.9142 316° Northwest 183 211 2,400 -900 Descending Chicago Center
11:51AM 42.8928 -87.9022 10° North 160 184 1,500 -540 Descending Chicago Center
11:52AM 42.9236 -87.8953 North 152 175 1,300 -240 Descending Chicago Center
11:54AM 42.9333 -87.8833 236° Southwest  Level FlightAware Approximate
12:01PM 42.9469 -87.8971 236° Southwest  Level Estimated